Location: Praha
(50.0830°N, 14.4670°E)
Time: 05:31:27
(UTC+02:00)

ISS - Pass Details

Date: 13 July 2024
Orbit: 409 x 423 km, 51.6° (Epoch: 24 July)

Event Time Altitude Azimuth Distance (km) Brightness Sun altitude
Rises 22:12:40 0° 250° (WSW) 2,332 0.3 -8.5°
Reaches altitude 10° 22:14:44 10° 250° (WSW) 1,473 -0.7 -8.7°
Maximum altitude 22:18:03 83° 161° (SSE) 417 -3.9 -9.0°
Drops below altitude 10° 22:21:22 10° 75° (ENE) 1,479 -1.2 -9.3°
Sets 22:23:27 0° 74° (ENE) 2,344 -0.2 -9.6°
